Volver al catálogo

FENGYUN 1C DEB

ActivoSSO
NORAD 30329·DEBRIS·🇨🇳 China

Lanzado May 10, 1999 desde Taiyuan Satellite Launch Center

Loading…

Próximos Pases (próximas 24 horas)

TLE

ActualizadoSource: Space-Track

Época: Sep 13, 2026, 18:43 UTC

1 30329U 99025AAQ 26256.78011450  .00000302  00000-0  27339-3 0  9991
2 30329  99.2617 178.6233 0142155  18.2394   6.2438 13.86974112992238

Sigue FENGYUN 1C DEB en tiempo real con AllMySat

Download on the App Store